Location: Vienna
(48.2082°N, 16.3738°E)
Time: 22:19:44
(UTC+02:00)

ISS - Pass Details

Date: 19 July 2018
Orbit: 402 x 408 km, 51.6° (Epoch: 20 July)

Event Time Altitude Azimuth Distance (km) Brightness Sun altitude
Rises 23:01:16 0° 236° (SW) 2,313 0.0 -16.0°
Reaches altitude 10° 23:03:21 10° 233° (SW) 1,458 -1.1 -16.2°
Maximum altitude 23:06:35 61° 152° (SSE) 463 -3.9 -16.5°
Drops below altitude 10° 23:09:50 10° 71° (ENE) 1,468 -1.1 -16.7°
Sets 23:11:56 0° 68° (ENE) 2,332 0.0 -16.9°
